Location: Newark
(52.2583°N, 7.1190°W)
Time: 09:51:54
(UTC+00:00)

Envisat - Visible Passes

Search period start: 23 October 2019 00:00
Search period end: 02 November 2019 00:00
Orbit: 764 x 766 km, 98.1° (Epoch: 23 October)

Date Brightness Start Highest point End Pass type
(mag) Time Alt. Az. Time Alt. Az. Time Alt. Az.
23 Oct 6.2 06:03:38 10° NE 06:06:30 15° E 06:09:22 10° ESE visible
23 Oct 4.3 19:01:52 10° SSW 19:06:41 42° W 19:11:31 10° NNW visible
24 Oct 3.1 18:24:41 10° SSE 18:29:47 81° WSW 18:34:54 10° NNW visible
24 Oct 6.1 20:07:05 10° WSW 20:09:39 14° W 20:12:13 10° NW visible
25 Oct 5.8 06:28:15 10° NE 06:32:21 24° E 06:36:25 10° SE visible
25 Oct 3.1 17:48:08 10° SE 17:53:04 54° ENE 17:58:01 10° N visible
25 Oct 5.2 19:28:08 10° SSW 19:32:23 27° W 19:36:41 10° NW visible
26 Oct 6.4 05:53:05 10° ENE 05:55:04 12° E 05:57:02 10° ESE visible
26 Oct 3.9 18:50:25 10° S 18:55:21 51° W 19:00:20 10° NNW visible
27 Oct 3.0 18:13:26 10° SSE 18:18:30 84° ENE 18:23:37 10° NNW visible
27 Oct 5.8 19:54:57 10° SW 19:58:13 17° W 20:01:29 10° NW visible
28 Oct 6.0 06:17:17 10° NE 06:20:57 20° E 06:24:36 10° SE visible
28 Oct 3.3 17:37:02 10° SE 17:41:51 44° ENE 17:46:40 10° N visible
28 Oct 4.8 19:16:30 10° SSW 19:21:02 32° W 19:25:35 10° NNW visible
29 Oct 3.5 18:39:01 10° S 18:44:03 62° W 18:49:07 10° NNW visible
29 Oct 6.3 20:23:41 10° W 20:24:08 10° W 20:24:35 10° WNW visible
30 Oct 5.3 06:42:13 10° NNE 06:46:44 31° E 06:51:12 10° SSE visible
30 Oct 3.0 18:02:12 10° SSE 18:07:15 70° ENE 18:12:20 10° N visible
30 Oct 5.6 19:43:03 10° SW 19:46:48 21° W 19:50:35 10° NW visible
31 Oct 6.1 06:06:24 10° NE 06:09:32 16° E 06:12:39 10° SE visible
31 Oct 4.4 19:04:57 10° SSW 19:09:40 39° W 19:14:27 10° NNW visible
01 Nov 3.2 18:27:40 10° S 18:32:45 76° WSW 18:37:52 10° NNW visible
01 Nov 6.1 20:10:27 10° WSW 20:12:40 13° W 20:14:54 10° WNW visible
